Temp
11 10 10 10 10 9 9 9 8 7 7 7 6 6 5 5 4 4 4 3 3 3 3 3 3 3 2 2 2 2 2 2 2 2 3 3 3 3 3 3 3 3 3
10 10 10 9 9 9 8 7 7 7 6 6 6 5 5 4 4 4 3 3 3 3 3 3 3 3 3 2 2 2 2 2 2 3 3 3 3 3 3 2 3 3 3
9 9 9 8 8 7 7 7 7 6 6 5 5 5 5 4 4 4 3 3 3 2 3 3 3 3 3 2 2 3 3 3 2 3 3 3 3 3 3 3 2 3 3
9 8 8 8 7 7 7 6 6 5 5 5 5 5 4 4 4 3 3 3 3 2 3 3 3 3 3 3 3 3 3 3 3 3 3 3 3 3 3 3 3 2 3
8 8 8 7 7 6 6 5 5 5 5 5 4 4 4 4 3 3 3 3 2 2 3 3 3 3 3 3 3 3 3 3 3 3 3 3 3 3 3 3 3 3 3
8 7 7 6 6 6 5 5 5 5 4 4 4 4 4 3 3 3 3 3 2 2 3 3 3 3 3 3 3 2 2 2 3 3 3 3 3 3 2 3 3 3 2
7 6 6 6 6 5 5 4 4 4 4 4 4 4 3 3 3 3 3 2 2 2 3 3 3 3 3 3 3 3 2 2 3 2 2 2 3 3 3 3 2 2 3
6 6 5 6 5 5 5 4 4 4 4 4 4 4 3 3 3 3 3 2 3 2 2 2 2 2 2 2 2 2 2 2 3 3 2 2 2 2 2 2 3 2 2
4 5 6 5 5 5 5 4 4 4 4 4 4 4 3 3 3 3 2 2 2 2 2 2 2 2 2 2 3 3 3 3 3 3 2 2 2 2 3 2 2 2 2
4 4 5 5 5 5 5 4 4 4 4 4 4 3 3 3 3 3 3 2 2 2 2 2 2 2 2 2 2 3 3 3 3 3 2 2 2 2 2 2 2 2 1
2 3 4 4 4 4 4 4 4 4 4 3 4 4 3 3 3 3 3 3 3 2 2 2 2 2 2 2 2 2 3 3 3 3 2 2 2 2 2 2 1 1 1
3 3 4 4 3 3 3 3 3 4 4 4 4 3 3 3 3 3 3 3 2 2 2 2 2 2 2 2 2 2 3 2 3 3 3 2 2 2 2 1 1 1 1
2 4 4 4 3 3 3 3 4 3 4 4 4 3 3 3 4 3 3 3 2 2 2 2 2 2 2 2 2 3 2 1 2 2 2 2 2 1 1 1 1 2 2
3 4 4 4 3 3 3 3 3 4 4 4 4 4 4 4 4 3 3 3 3 2 1 2 2 2 2 2 2 2 1 2 2 2 2 2 2 2 1 1 2 2 2
3 4 4 4 4 3 3 3 3 4 4 4 4 4 4 4 3 3 3 3 3 2 1 1 1 1 1 1 1 1 1 1 1 1 1 1 1 2 2 3 3 3 3
2 3 2 2 4 3 3 3 3 3 4 4 4 4 4 3 3 3 3 3 2 2 2 1 1 1 1 1 2 2 2 2 2 2 1 2 2 3 3 3 3 3 3
2 2 3 2 1 2 3 3 3 3 4 4 4 3 3 3 3 3 3 3 3 3 2 2 2 2 2 2 2 2 2 2 2 2 2 2 3 3 3 3 3 3 3
2 4 2 2 2 2 2 3 2 4 4 4 3 3 4 4 4 3 3 3 3 3 3 2 2 2 2 2 2 2 3 3 3 3 3 3 3 3 3 3 3 3 3
3 4 3 3 2 2 2 2 3 3 4 4 4 4 4 4 4 4 4 3 3 3 3 3 2 2 2 2 2 3 3 3 3 3 3 4 4 4 4 4 4 3 3
4 4 3 2 2 2 2 2 2 4 4 4 4 4 4 4 3 3 4 4 3 3 3 3 3 3 3 3 3 3 3 3 3 3 4 4 4 4 4 4 4 4 3
3 4 3 3 2 2 2 2 3 4 4 4 4 4 4 5 5 4 4 4 4 4 4 4 4 4 3 3 3 3 4 4 4 4 4 4 4 4 4 4 4 4 4
3 3 4 3 3 2 2 2 2 2 2 3 3 4 4 5 4 4 4 4 4 4 4 5 5 4 4 4 4 4 4 4 4 4 4 4 4 4 4 4 4 4 4
4 4 3 3 3 3 3 2 2 2 2 2 2 5 5 4 3 3 4 4 4 4 4 4 4 4 4 4 5 5 5 5 4 4 4 4 4 4 4 4 4 4 4
4 4 4 4 4 4 4 3 3 3 2 2 2 2 4 4 4 4 3 3 4 4 5 5 5 4 4 4 4 4 4 4 4 4 4 4 4 4 4 4 5 5 4
4 4 5 5 5 5 5 5 4 4 4 4 3 4 4 4 3 3 3 3 4 4 4 4 4 4 4 4 4 5 5 5 5 4 4 4 4 4 4 5 5 5 5
4 4 5 5 4 5 5 5 5 5 5 5 5 4 5 5 5 5 5 5 5 4 4 4 3 3 3 5 6 6 6 6 6 5 5 5 6 6 6 6 5 5 5
Height
3036 3038 3039 3041 3042 3043 3045 3046 3048 3049 3050 3051 3051 3052 3053 3053 3054 3054 3055 3055 3056 3057 3057 3058 3059 3060 3060 3061 3061 3063 3064 3066 3069 3073 3078 3081 3085 3089 3092 3096 3100 3103 3107
3033 3035 3037 3038 3039 3040 3042 3043 3045 3046 3047 3048 3049 3049 3050 3051 3051 3051 3052 3052 3052 3053 3054 3055 3057 3059 3060 3061 3062 3064 3066 3067 3070 3074 3077 3081 3084 3088 3091 3096 3099 3103 3107
3031 3033 3034 3035 3036 3038 3040 3041 3042 3043 3044 3045 3047 3047 3049 3049 3050 3050 3050 3049 3049 3050 3051 3053 3055 3057 3059 3060 3062 3064 3067 3069 3072 3074 3077 3080 3084 3088 3091 3095 3099 3103 3107
3029 3030 3031 3033 3034 3035 3037 3038 3039 3041 3042 3044 3045 3046 3047 3047 3048 3048 3047 3047 3046 3048 3050 3051 3053 3055 3058 3060 3062 3064 3067 3069 3071 3074 3077 3080 3084 3087 3091 3095 3098 3102 3106
3027 3028 3029 3030 3031 3032 3034 3035 3037 3038 3040 3042 3044 3045 3046 3047 3047 3045 3045 3044 3044 3045 3047 3050 3052 3055 3057 3059 3061 3064 3066 3069 3072 3074 3077 3080 3084 3087 3091 3094 3098 3101 3106
3025 3026 3027 3028 3029 3031 3032 3034 3036 3037 3039 3041 3043 3044 3046 3046 3045 3044 3043 3042 3043 3044 3046 3050 3052 3054 3057 3059 3061 3063 3065 3068 3072 3075 3078 3081 3084 3087 3090 3093 3097 3101 3105
3023 3025 3026 3028 3028 3029 3031 3033 3035 3037 3039 3042 3044 3044 3045 3046 3044 3042 3042 3043 3043 3044 3047 3049 3051 3054 3057 3059 3061 3064 3066 3068 3071 3076 3079 3080 3081 3086 3090 3094 3098 3101 3105
3023 3025 3026 3028 3028 3029 3031 3032 3035 3037 3040 3042 3043 3044 3045 3046 3045 3043 3043 3043 3044 3044 3046 3048 3050 3053 3056 3059 3060 3063 3066 3069 3071 3073 3076 3080 3081 3086 3090 3094 3097 3101 3106
3024 3026 3026 3027 3028 3029 3031 3032 3035 3038 3040 3042 3043 3045 3045 3045 3045 3044 3043 3042 3043 3042 3043 3047 3049 3053 3055 3058 3059 3063 3067 3070 3072 3075 3077 3079 3082 3086 3092 3096 3098 3103 3106
3026 3026 3026 3027 3028 3029 3031 3033 3036 3038 3040 3041 3044 3045 3045 3045 3045 3044 3042 3042 3043 3043 3042 3045 3048 3050 3053 3057 3060 3064 3067 3070 3072 3072 3075 3078 3083 3087 3093 3096 3100 3103 3106
3026 3026 3027 3029 3030 3031 3032 3035 3036 3038 3041 3043 3044 3045 3045 3045 3046 3045 3043 3042 3043 3043 3043 3044 3046 3048 3050 3055 3059 3063 3066 3069 3071 3074 3076 3081 3085 3089 3093 3097 3101 3106 3110
3026 3027 3029 3030 3031 3033 3034 3036 3037 3039 3041 3043 3044 3044 3045 3046 3046 3046 3044 3043 3044 3043 3043 3044 3045 3047 3049 3053 3059 3063 3065 3067 3071 3075 3078 3082 3085 3090 3094 3099 3104 3108 3112
3027 3029 3030 3031 3033 3034 3036 3037 3039 3040 3042 3043 3045 3045 3046 3046 3046 3046 3045 3045 3046 3046 3045 3046 3047 3048 3051 3054 3060 3063 3066 3069 3074 3077 3080 3085 3089 3093 3098 3101 3105 3110 3114
3027 3030 3031 3033 3035 3036 3037 3039 3040 3041 3042 3043 3045 3045 3046 3046 3047 3047 3048 3048 3048 3048 3049 3051 3051 3053 3056 3060 3062 3065 3069 3072 3076 3080 3084 3088 3092 3096 3100 3104 3109 3113 3117
3029 3031 3032 3034 3035 3037 3037 3039 3040 3040 3041 3043 3045 3045 3046 3047 3048 3049 3049 3050 3051 3052 3053 3055 3057 3059 3061 3064 3067 3070 3074 3077 3081 3084 3088 3092 3096 3100 3105 3109 3113 3116 3119
3030 3032 3035 3035 3036 3037 3038 3039 3039 3040 3041 3043 3045 3045 3046 3048 3049 3050 3051 3053 3054 3056 3058 3061 3063 3065 3067 3070 3072 3075 3079 3083 3086 3089 3092 3096 3101 3105 3108 3112 3115 3118 3120
3033 3034 3035 3038 3038 3038 3039 3040 3041 3042 3042 3044 3045 3046 3047 3049 3050 3051 3053 3055 3057 3059 3062 3065 3068 3071 3073 3075 3078 3081 3084 3086 3090 3092 3096 3100 3103 3106 3109 3112 3115 3117 3119
3033 3034 3038 3042 3043 3042 3040 3044 3044 3044 3045 3046 3046 3047 3049 3050 3051 3053 3055 3057 3059 3062 3065 3069 3072 3074 3077 3079 3082 3084 3087 3090 3092 3095 3098 3101 3104 3106 3109 3111 3114 3116 3118
3033 3036 3041 3043 3045 3045 3043 3045 3048 3048 3048 3049 3050 3051 3052 3054 3055 3056 3058 3060 3062 3065 3067 3069 3072 3075 3078 3081 3083 3086 3089 3091 3094 3096 3099 3101 3103 3106 3108 3110 3112 3113 3114
3033 3036 3039 3043 3044 3045 3046 3047 3048 3049 3051 3052 3054 3055 3056 3058 3059 3061 3062 3063 3065 3067 3069 3072 3074 3077 3079 3081 3083 3086 3088 3090 3093 3096 3098 3100 3102 3104 3106 3108 3109 3110 3111
3035 3036 3039 3042 3045 3047 3049 3050 3050 3051 3053 3054 3056 3057 3059 3060 3062 3064 3065 3067 3069 3070 3072 3074 3076 3078 3081 3083 3085 3087 3089 3091 3093 3095 3096 3098 3100 3101 3103 3104 3105 3106 3106
3033 3036 3039 3043 3046 3047 3049 3051 3053 3054 3055 3056 3057 3058 3060 3062 3064 3065 3067 3069 3071 3072 3074 3076 3078 3079 3081 3082 3084 3086 3088 3090 3092 3093 3095 3096 3097 3098 3099 3099 3100 3100 3100
3031 3035 3038 3042 3044 3046 3048 3050 3053 3055 3057 3058 3060 3059 3060 3062 3064 3066 3068 3069 3071 3072 3073 3075 3077 3078 3080 3081 3083 3084 3086 3087 3088 3089 3090 3091 3092 3092 3093 3093 3093 3093 3093
3028 3032 3035 3038 3042 3045 3047 3050 3052 3054 3056 3059 3058 3060 3061 3062 3064 3065 3066 3068 3069 3071 3072 3074 3075 3076 3077 3078 3079 3080 3081 3083 3084 3085 3085 3086 3086 3087 3087 3086 3086 3086 3086
3028 3031 3034 3036 3038 3040 3043 3046 3048 3050 3052 3054 3056 3058 3060 3061 3062 3063 3064 3065 3067 3068 3070 3071 3072 3073 3074 3074 3075 3075 3076 3076 3076 3077 3077 3077 3077 3078 3078 3077 3077 3077 3076
3026 3031 3032 3034 3036 3039 3041 3044 3046 3048 3050 3051 3053 3054 3055 3057 3058 3060 3061 3062 3062 3063 3063 3065 3065 3065 3065 3063 3065 3067 3068 3068 3069 3068 3068 3068 3068 3068 3068 3067 3067 3067 3066
Wind_Speed
15 15 15 15 15 15 14 13 14 15 14 13 13 12 10 9 9 8 9 9 8 11 12 9 9 9 4 9 8 8 8 10 19 15 15 17 16 17 19 16 18 16 18
12 11 11 11 11 12 13 14 13 11 11 12 10 9 8 8 7 8 8 10 14 12 12 10 10 10 9 9 8 8 10 10 12 13 15 16 17 17 17 18 16 18 18
10 8 10 11 11 12 12 10 10 11 11 10 8 8 8 6 4 5 9 11 11 12 12 11 11 12 11 11 9 10 9 11 11 13 14 15 16 17 19 19 18 18 20
6 9 9 10 11 11 10 10 10 10 9 8 7 9 6 3 1 5 6 7 8 10 13 13 13 12 13 12 13 12 10 11 13 14 15 14 15 15 18 16 17 19 23
7 7 8 9 9 9 9 10 10 9 9 8 10 8 6 4 2 4 3 3 6 14 13 12 13 12 14 14 12 11 8 12 13 13 13 15 15 15 17 20 18 24 22
6 5 7 6 7 9 10 9 10 9 9 9 10 11 7 1 5 7 7 2 3 11 12 13 13 13 13 12 11 11 9 16 13 13 13 15 15 13 17 21 23 26 32
6 7 6 6 6 9 11 11 11 11 10 8 11 10 7 1 6 3 3 3 4 10 11 13 15 13 13 12 13 13 15 18 17 14 7 9 12 18 16 19 23 20 22
9 7 7 7 6 8 11 13 13 12 11 14 11 9 5 2 3 2 2 5 5 10 14 14 15 13 15 11 14 19 18 18 19 19 17 11 19 19 16 14 20 28 21
10 8 7 7 7 11 13 14 13 12 13 12 10 8 5 3 1 1 2 2 9 7 12 15 16 14 15 14 15 19 19 18 16 16 18 18 14 20 19 20 22 24 21
8 8 8 8 8 10 11 12 11 11 12 12 10 7 4 1 1 4 1 5 3 1 4 11 12 16 16 19 16 17 17 15 15 13 23 22 28 25 23 16 16 18 17
10 10 8 7 9 11 11 11 11 10 12 9 8 6 4 3 1 3 5 3 3 3 3 5 11 15 20 22 20 18 16 15 14 24 32 30 29 24 18 20 21 23 23
13 12 10 9 9 11 13 12 12 12 11 8 6 5 5 3 2 2 4 2 3 1 3 8 9 11 17 23 23 19 12 14 23 34 34 28 29 27 27 29 28 27 28
14 12 12 11 9 10 13 11 10 10 9 7 5 5 4 3 4 3 4 4 4 4 8 8 11 19 21 25 21 16 16 19 26 29 30 29 26 30 35 31 27 26 27
14 12 11 11 8 9 10 9 7 7 9 8 8 7 4 5 6 4 5 6 6 7 12 11 12 20 25 22 21 20 22 23 25 27 31 29 31 36 29 28 30 30 28
13 12 9 10 7 7 7 7 6 5 9 10 9 7 5 7 6 4 5 6 7 9 10 10 14 23 23 22 22 20 22 22 22 24 27 31 31 29 27 27 28 26 24
13 11 9 8 7 8 9 7 7 9 10 10 6 5 5 6 6 6 7 10 10 13 14 16 17 19 20 21 21 21 26 20 18 22 24 26 27 24 23 24 23 23 20
14 12 11 8 7 8 8 7 8 10 10 8 7 6 5 6 7 8 11 13 14 17 18 18 15 16 17 18 19 20 22 20 23 25 24 23 22 22 22 22 22 22 21
15 15 10 9 7 6 9 7 5 10 10 10 9 10 10 12 11 11 12 13 14 18 21 19 16 15 15 15 16 20 22 23 24 24 23 21 21 21 22 22 22 22 21
15 15 13 9 9 7 8 11 9 9 11 12 13 15 15 15 13 13 13 14 13 14 18 20 19 16 15 15 14 15 18 19 19 18 18 19 20 21 22 22 23 23 22
18 17 14 11 9 9 7 9 10 12 12 12 12 12 13 14 13 13 12 13 13 13 13 14 15 15 16 16 17 18 20 21 20 19 18 18 19 20 21 21 22 23 23
14 17 15 12 9 9 8 8 9 10 11 11 11 10 10 10 9 9 9 9 10 10 9 9 10 12 13 14 15 14 16 18 21 22 21 21 21 21 22 23 24 24 25
16 15 16 12 11 10 10 9 8 8 8 9 9 11 10 9 8 7 7 7 7 7 7 7 8 8 9 10 11 13 13 14 16 17 19 21 22 23 24 25 27 28 29
17 17 17 14 13 13 12 11 9 9 8 8 8 10 10 10 9 7 7 7 8 8 8 9 9 9 9 10 11 12 14 15 16 18 20 21 23 24 25 27 29 30 32
19 19 19 19 17 15 16 16 13 12 10 9 9 10 12 13 13 12 11 11 11 11 11 11 12 13 13 14 14 15 15 15 17 19 20 22 24 26 28 30 31 32 33
16 13 13 13 14 17 20 20 18 18 17 17 16 14 13 13 14 15 16 16 16 16 16 17 17 17 18 19 20 21 22 22 23 24 25 26 27 28 29 31 32 33 34
14 12 10 10 15 17 19 19 18 19 19 18 18 17 17 16 15 15 16 17 18 20 21 22 24 25 27 29 28 28 28 29 30 31 33 34 35 35 36 37 38 38 39
Wind_Direction
207 213 222 229 228 227 230 232 231 234 243 247 244 241 233 228 221 225 234 242 248 250 245 227 218 212 195 177 144 145 153 164 177 180 177 171 171 174 176 175 178 171 171
199 205 209 221 230 233 231 233 234 235 230 227 223 216 212 204 220 239 248 241 245 252 231 219 208 203 192 172 164 167 164 170 173 177 180 177 172 175 177 171 167 172 171
188 212 236 241 234 231 230 230 223 212 209 205 199 200 192 178 214 253 261 246 250 220 223 209 200 196 194 187 183 176 168 173 179 178 175 177 180 180 178 177 177 176 172
250 248 240 235 231 231 223 204 199 196 197 183 184 180 160 161 243 282 282 236 212 208 213 203 198 201 198 189 171 173 173 174 178 176 176 181 184 178 179 183 179 171 179
243 229 232 230 216 203 192 185 188 188 179 174 176 167 156 171 313 346 301 284 235 201 196 202 192 190 190 180 171 167 164 173 172 171 181 179 179 182 182 176 183 174 179
222 215 189 184 187 186 181 185 185 178 174 180 179 169 172 170 320 313 245 252 231 181 191 200 191 191 191 194 189 187 185 174 171 173 181 186 199 194 192 186 181 186 171
179 174 177 185 181 179 180 179 177 172 173 180 179 178 182 204 348 331 194 204 188 196 195 194 198 199 200 197 201 199 183 173 167 169 166 177 197 184 166 170 179 196 183
165 162 169 166 165 176 180 174 167 170 174 174 181 177 173 209 351 23 217 176 202 191 194 199 196 191 191 209 206 200 192 189 184 176 175 168 159 165 174 199 170 176 179
146 158 149 148 155 170 170 165 166 174 172 173 183 170 167 139 13 309 268 169 153 164 198 194 192 196 191 184 171 173 184 189 193 188 177 171 170 174 169 149 160 182 192
155 160 139 142 154 160 165 164 166 173 173 178 175 174 174 147 278 333 263 226 163 323 178 181 205 190 183 185 174 174 181 188 202 212 183 169 161 165 154 164 186 178 175
161 141 132 141 149 152 146 149 163 156 169 174 165 181 156 88 344 340 328 251 222 239 201 201 195 189 196 192 188 181 188 206 195 166 147 144 149 149 156 158 149 146 148
143 135 136 142 141 150 147 155 156 153 165 176 169 183 153 117 160 355 334 175 168 114 109 151 172 168 183 188 190 189 205 197 178 164 156 157 154 165 165 147 150 157 166
141 145 142 130 139 150 151 158 163 169 172 171 168 207 170 125 149 79 65 105 101 80 119 134 146 146 153 155 159 169 156 165 171 168 175 170 167 165 158 158 163 164 164
155 158 145 132 138 135 144 151 172 182 189 184 188 221 200 159 157 123 104 103 72 92 125 129 147 144 145 143 143 140 146 151 158 165 167 169 169 165 164 166 165 167 167
155 157 146 125 132 137 140 141 157 167 179 178 191 215 184 162 161 140 120 118 96 103 128 130 136 148 152 145 135 137 145 151 152 162 166 167 170 167 167 168 172 177 183
158 153 143 125 126 132 129 124 132 127 142 150 159 159 159 163 170 160 146 138 120 122 120 131 123 136 147 138 138 143 150 149 157 158 167 169 166 169 174 178 185 191 196
156 162 141 135 127 136 127 114 109 129 127 130 140 153 160 158 163 158 152 148 132 140 136 143 135 139 146 148 153 158 164 162 168 164 163 168 174 181 185 191 196 201 208
159 155 145 137 133 126 135 127 110 104 111 112 111 116 127 131 132 137 145 151 147 150 155 149 152 157 157 159 168 164 161 163 169 175 181 186 191 195 198 200 204 210 217
161 161 148 154 147 155 125 139 129 128 114 111 111 116 120 119 118 120 128 145 154 161 166 169 175 173 176 177 171 177 183 185 187 192 198 201 203 205 207 210 216 222 228
175 173 161 163 164 148 139 132 141 131 125 122 121 123 127 130 128 122 118 123 136 155 168 181 188 187 187 189 194 195 196 200 204 206 209 213 216 218 221 226 232 237 243
180 180 180 173 175 165 166 156 150 145 140 138 137 139 140 138 133 133 133 134 134 140 151 166 182 197 206 207 208 206 208 212 215 219 223 226 228 231 234 238 243 248 253
183 191 189 183 189 185 179 176 172 164 163 160 163 154 152 154 149 151 156 163 167 172 177 185 194 201 209 214 219 224 229 231 233 236 239 243 246 248 250 252 254 256 259
196 201 198 196 199 197 189 183 182 181 183 179 184 180 175 174 170 179 187 194 194 195 199 205 214 223 232 240 245 245 245 245 245 244 245 247 250 253 255 256 258 260 262
200 202 204 205 209 210 207 194 193 195 191 193 205 193 189 190 193 200 208 216 222 225 227 227 227 228 231 234 238 242 244 246 250 254 256 259 261 263 263 264 266 266 267
204 208 204 207 218 224 214 209 212 212 214 217 221 218 218 215 214 215 219 224 230 235 240 242 244 246 246 246 246 244 243 241 242 244 248 251 253 256 259 262 263 265 269
167 185 180 195 214 216 219 227 234 238 239 241 245 248 252 255 254 256 256 256 249 242 241 245 246 246 245 246 251 251 251 252 251 249 251 253 255 255 256 259 261 264 267